• In Russia
  • List of Countries
  • For 7 days
  • Water Temperature
  • Satellite Maps
  • Weather Map
  • Weather Widgets
  • user-avatar
    Login

    Hourly Weather Lajosmizse

    Today, 14 December, Thursday

    Time Temperature Precipitation Wind Pressure Humidity
    00:00 0°C° 0 mm 3 mps 747 mmHg 82%
    01:00 0°C° 0 mm 3 mps 746 mmHg 84%
    02:00 -1°C° 0 mm 4 mps 746 mmHg 86%
    03:00 -1°C° 0 mm 4 mps 745 mmHg 88%
    04:00 -1°C° 0 mm 5 mps 744 mmHg 90%
    05:00 -1°C° 0 mm 6 mps 744 mmHg 89%
    06:00 -1°C° 0 mm 6 mps 743 mmHg 88%
    07:00 -1°C° 0 mm 7 mps 743 mmHg 87%
    08:00 +1°C° 0 mm 6 mps 743 mmHg 83%
    09:00 +3°C° 0 mm 6 mps 743 mmHg 79%
    10:00 +4°C° 0 mm 6 mps 743 mmHg 74%
    11:00 +4°C° 0.7 mm 6 mps 743 mmHg 78%
    12:00 +5°C° 0.7 mm 5 mps 743 mmHg 82%
    13:00 +5°C° 0.7 mm 5 mps 743 mmHg 85%
    14:00 +5°C° 1 mm 4 mps 743 mmHg 86%
    15:00 +5°C° 1 mm 4 mps 743 mmHg 87%
    16:00 +5°C° 1 mm 3 mps 744 mmHg 88%
    17:00 +4°C° 0.7 mm 3 mps 744 mmHg 86%
    18:00 +4°C° 0.7 mm 3 mps 744 mmHg 85%
    19:00 +4°C° 0.7 mm 3 mps 744 mmHg 84%
    20:00 +4°C° 0.5 mm 3 mps 744 mmHg 82%
    21:00 +4°C° 0.5 mm 3 mps 744 mmHg 80%
    22:00 +4°C° 0.5 mm 3 mps 744 mmHg 78%
    23:00 +4°C° 0.5 mm 3 mps 743 mmHg 78%

    Tomorrow, 15 December, Friday

    Time Temperature Precipitation Wind Pressure Humidity
    00:00 +4°C° 0.5 mm 3 mps 743 mmHg 77%
    01:00 +3°C° 0.5 mm 4 mps 742 mmHg 77%
    02:00 +3°C° 0.2 mm 4 mps 742 mmHg 79%
    03:00 +3°C° 0.2 mm 5 mps 741 mmHg 81%
    04:00 +3°C° 0.2 mm 5 mps 740 mmHg 83%
    05:00 +3°C° 0 mm 5 mps 739 mmHg 83%
    06:00 +4°C° 0 mm 6 mps 739 mmHg 83%
    07:00 +5°C° 0 mm 6 mps 739 mmHg 83%
    08:00 +6°C° 0.3 mm 7 mps 739 mmHg 80%
    09:00 +8°C° 0.3 mm 7 mps 739 mmHg 78%
    10:00 +7°C° 0.3 mm 8 mps 739 mmHg 75%
    11:00 +8°C° 1.1 mm 7 mps 739 mmHg 76%
    12:00 +8°C° 1.1 mm 6 mps 739 mmHg 76%
    13:00 +8°C° 1.1 mm 5 mps 739 mmHg 77%
    14:00 +7°C° 0.5 mm 4 mps 739 mmHg 76%
    15:00 +7°C° 0.5 mm 3 mps 740 mmHg 74%
    16:00 +6°C° 0.5 mm 2 mps 740 mmHg 73%
    17:00 +6°C° 0.2 mm 2 mps 740 mmHg 73%
    18:00 +7°C° 0.2 mm 1 mps 740 mmHg 73%
    19:00 +6°C° 0.2 mm 1 mps 740 mmHg 74%
    20:00 +5°C° 0.4 mm 2 mps 740 mmHg 74%
    21:00 +5°C° 0.4 mm 2 mps 740 mmHg 74%
    22:00 +5°C° 0.4 mm 2 mps 740 mmHg 73%
    23:00 +5°C° 0.1 mm 2 mps 741 mmHg 73%

    Day after tomorrow, 16 December, Saturday

    Time Temperature Precipitation Wind Pressure Humidity
    00:00 +3°C° 0.1 mm 3 mps 741 mmHg 73%
    01:00 +3°C° 0.1 mm 3 mps 741 mmHg 73%
    02:00 +3°C° 0 mm 3 mps 741 mmHg 72%
    03:00 +3°C° 0 mm 3 mps 741 mmHg 71%
    04:00 +3°C° 0 mm 3 mps 741 mmHg 70%
    05:00 +3°C° 0 mm 3 mps 741 mmHg 70%
    06:00 +3°C° 0 mm 3 mps 742 mmHg 70%
    07:00 +4°C° 0 mm 2 mps 742 mmHg 70%
    08:00 +3°C° 0 mm 3 mps 743 mmHg 69%
    09:00 +3°C° 0 mm 3 mps 743 mmHg 67%
    10:00 +4°C° 0 mm 3 mps 744 mmHg 66%
    11:00 +4°C° 0 mm 3 mps 744 mmHg 64%
    12:00 +5°C° 0 mm 4 mps 744 mmHg 62%
    13:00 +5°C° 0 mm 4 mps 745 mmHg 61%
    14:00 +4°C° 0 mm 3 mps 745 mmHg 64%
    15:00 +4°C° 0 mm 3 mps 745 mmHg 67%
    16:00 +4°C° 0 mm 2 mps 745 mmHg 70%
    17:00 +3°C° 0 mm 3 mps 746 mmHg 71%
    18:00 +2°C° 0 mm 3 mps 746 mmHg 72%
    19:00 +2°C° 0 mm 3 mps 747 mmHg 73%
    20:00 +2°C° 0 mm 3 mps 747 mmHg 73%
    21:00 +1°C° 0 mm 4 mps 747 mmHg 73%
    22:00 +1°C° 0 mm 4 mps 747 mmHg 72%
    23:00 0°C° 0 mm 5 mps 747 mmHg 72%

    17 December, Sunday

    Time Temperature Precipitation Wind Pressure Humidity
    00:00 0°C° 0 mm 5 mps 747 mmHg 71%
    01:00 0°C° 0 mm 5 mps 747 mmHg 71%
    02:00 0°C° 0 mm 5 mps 747 mmHg 71%
    03:00 0°C° 0 mm 5 mps 747 mmHg 71%
    04:00 -1°C° 0 mm 6 mps 747 mmHg 72%
    05:00 -1°C° 0 mm 5 mps 747 mmHg 72%
    06:00 -1°C° 0 mm 5 mps 748 mmHg 72%
    07:00 -1°C° 0 mm 5 mps 748 mmHg 73%
    08:00 -1°C° 0 mm 5 mps 749 mmHg 70%
    09:00 -1°C° 0 mm 6 mps 749 mmHg 68%
    10:00 -1°C° 0 mm 6 mps 750 mmHg 66%
    11:00 +1°C° 0 mm 6 mps 750 mmHg 64%
    12:00 +1°C° 0 mm 6 mps 750 mmHg 61%
    13:00 +2°C° 0 mm 6 mps 750 mmHg 59%
    14:00 +1°C° 0 mm 6 mps 751 mmHg 62%
    15:00 +1°C° 0 mm 5 mps 751 mmHg 65%
    16:00 0°C° 0 mm 5 mps 752 mmHg 67%
    17:00 0°C° 0 mm 4 mps 752 mmHg 69%
    18:00 -1°C° 0 mm 4 mps 753 mmHg 70%
    19:00 -1°C° 0 mm 4 mps 753 mmHg 72%
    20:00 -1°C° 0 mm 4 mps 754 mmHg 73%
    21:00 -2°C° 0 mm 4 mps 754 mmHg 74%
    22:00 -2°C° 0 mm 4 mps 754 mmHg 75%
    23:00 -2°C° 0 mm 4 mps 755 mmHg 76%

    18 December, Monday

    Time Temperature Precipitation Wind Pressure Humidity
    00:00 -2°C° 0 mm 4 mps 755 mmHg 76%
    01:00 -2°C° 0 mm 4 mps 755 mmHg 77%
    02:00 -2°C° 0 mm 4 mps 756 mmHg 78%
    03:00 -2°C° 0 mm 4 mps 756 mmHg 78%
    04:00 -2°C° 0 mm 4 mps 756 mmHg 79%
    05:00 -2°C° 0 mm 3 mps 757 mmHg 79%
    06:00 -2°C° 0 mm 3 mps 757 mmHg 80%
    07:00 -2°C° 0 mm 3 mps 757 mmHg 80%
    08:00 -1°C° 0 mm 3 mps 758 mmHg 75%
    09:00 -1°C° 0 mm 4 mps 758 mmHg 70%
    10:00 -1°C° 0 mm 4 mps 758 mmHg 64%
    11:00 0°C° 0 mm 4 mps 758 mmHg 61%
    12:00 0°C° 0 mm 4 mps 758 mmHg 58%
    13:00 +1°C° 0 mm 4 mps 757 mmHg 55%
    14:00 +1°C° 0 mm 3 mps 757 mmHg 60%
    15:00 0°C° 0 mm 3 mps 757 mmHg 64%
    16:00 -1°C° 0 mm 2 mps 757 mmHg 69%
    17:00 -1°C° 0 mm 2 mps 757 mmHg 71%
    18:00 -1°C° 0 mm 2 mps 757 mmHg 74%
    19:00 -1°C° 0 mm 2 mps 757 mmHg 76%
    20:00 -1°C° 0 mm 2 mps 757 mmHg 77%
    21:00 -1°C° 0 mm 2 mps 757 mmHg 78%
    22:00 +1°C° 0 mm 1 mps 758 mmHg 79%
    23:00 +1°C° 0.1 mm 1 mps 758 mmHg 79%

    19 December, Tuesday

    Time Temperature Precipitation Wind Pressure Humidity
    00:00 +1°C° 0.1 mm 1 mps 758 mmHg 79%
    01:00 +1°C° 0.1 mm 1 mps 758 mmHg 80%
    02:00 +1°C° 0 mm 1 mps 758 mmHg 80%
    03:00 -1°C° 0 mm 2 mps 758 mmHg 81%
    04:00 -1°C° 0 mm 2 mps 758 mmHg 81%
    05:00 -1°C° 0 mm 2 mps 758 mmHg 80%
    06:00 -1°C° 0 mm 2 mps 759 mmHg 79%
    07:00 -1°C° 0 mm 2 mps 759 mmHg 78%
    08:00 -1°C° 0.1 mm 2 mps 759 mmHg 76%
    09:00 +1°C° 0.1 mm 2 mps 760 mmHg 74%
    10:00 +1°C° 0.1 mm 2 mps 760 mmHg 71%
    11:00 +1°C° 0.1 mm 2 mps 760 mmHg 71%
    12:00 +2°C° 0.1 mm 2 mps 760 mmHg 71%
    13:00 +2°C° 0.1 mm 2 mps 760 mmHg 71%
    14:00 +2°C° 0.1 mm 2 mps 760 mmHg 74%
    15:00 +2°C° 0.1 mm 1 mps 760 mmHg 78%
    16:00 +2°C° 0.1 mm 1 mps 760 mmHg 81%
    17:00 +2°C° 0 mm 1 mps 760 mmHg 83%
    18:00 0°C° 0 mm 0 mps 761 mmHg 84%
    19:00 0°C° 0 mm 0 mps 761 mmHg 86%
    20:00 0°C° 0 mm 0 mps 761 mmHg 87%
    21:00 0°C° 0 mm 0 mps 761 mmHg 88%
    22:00 0°C° 0 mm 0 mps 761 mmHg 88%
    23:00 0°C° 0 mm 0 mps 761 mmHg 89%
    Show more